This is the latest recevied weather packets stored in our database for station/object DB0LS-15. If no packets are shown the sender has not sent any weather packets the latest 10 day(s).
| Time | Temp. | Humidity | Pressure | Rain* | Wind** | Luminosity | Snow |
|---|---|---|---|---|---|---|---|
| 1777844149 | 19.44° C | 44% | 992.8 hPa | 0 mm | - | - | - |
| 1777843545 | 20° C | 43% | 992.6 hPa | 0 mm | - | - | - |
| 1777842941 | 20.56° C | 41% | 992.4 hPa | 0 mm | - | - | - |
| 1777842337 | 20.56° C | 41% | 992.2 hPa | 0 mm | - | - | - |
| 1777841733 | 21.11° C | 39% | 992.3 hPa | 0 mm | - | - | - |
| 1777841160 | 21.11° C | 39% | 992.2 hPa | 0 mm | - | - | - |
| 1777840556 | 21.11° C | 39% | 992.3 hPa | 0 mm | - | - | - |
| 1777839952 | 21.67° C | 38% | 992.4 hPa | 0 mm | - | - | - |
| 1777839348 | 21.11° C | 39% | 992.3 hPa | 0 mm | - | - | - |
| 1777838745 | 21.11° C | 39% | 992.4 hPa | 0 mm | - | - | - |
| 1777838141 | 21.11° C | 39% | 992.5 hPa | 0 mm | - | - | - |
| 1777837537 | 21.67° C | 39% | 992.5 hPa | 0 mm | - | - | - |
| 1777836934 | 21.67° C | 38% | 992.5 hPa | 0 mm | - | - | - |
| 1777836330 | 21.67° C | 38% | 992.4 hPa | 0 mm | - | - | - |
| 1777835726 | 22.22° C | 36% | 992.4 hPa | 0 mm | - | - | - |
| 1777835122 | 22.22° C | 36% | 992.4 hPa | 0 mm | - | - | - |
| 1777834518 | 22.78° C | 35% | 992.5 hPa | 0 mm | - | - | - |
| 1777833975 | 22.78° C | 34% | 992.5 hPa | 0 mm | - | - | - |
| 1777833371 | 22.78° C | 34% | 992.4 hPa | 0 mm | - | - | - |
| 1777832767 | 23.33° C | 33% | 992.2 hPa | 0 mm | - | - | - |
| 1777832163 | 23.33° C | 32% | 992.3 hPa | 0 mm | - | - | - |
| 1777831560 | 23.33° C | 32% | 992.3 hPa | 0 mm | - | - | - |
| 1777830956 | 23.89° C | 31% | 992.3 hPa | 0 mm | - | - | - |
| 1777830352 | 24.44° C | 31% | 992.3 hPa | 0 mm | - | - | - |
| 1777829748 | 24.44° C | 30% | 992.2 hPa | 0 mm | - | - | - |
* Rain latest hour (hover to see other rain measurements)
** Current wind speed in m/s (hover to see current wind gust speed)